Location: Fort Wayne
(41.1310°N, 85.1290°W)
Time: 06:17:53
(UTC-05:00)

Vanguard 3 - Visible Passes

Search period start: 27 February 2017 00:00
Search period end: 09 March 2017 00:00
Orbit: 508 x 3265 km, 33.3° (Epoch: 26 February)

Date Brightness Start Highest point End Pass type
(mag) Time Alt. Az. Time Alt. Az. Time Alt. Az.
27 Feb 9.0 04:17:49 34° SSE 04:18:27 35° SSE 04:28:03 10° E visible
27 Feb 9.3 06:22:25 11° WSW 06:30:35 58° S 06:45:21 10° E visible
28 Feb 10.0 03:08:22 16° ESE 03:08:22 16° ESE 03:11:04 10° E visible
28 Feb 8.7 05:12:58 32° SW 05:16:23 50° SSE 05:28:20 10° E visible
01 Mar 8.9 04:03:30 35° SE 04:03:30 35° SE 04:11:38 10° E visible
01 Mar 9.0 06:08:06 15° WSW 06:14:50 56° S 06:28:29 10° ESE visible
02 Mar 10.2 02:54:02 13° ESE 02:54:02 13° ESE 02:55:06 10° E visible
02 Mar 8.4 04:58:38 39° SSW 05:00:47 49° SSE 05:11:42 10° E visible
03 Mar 9.1 03:49:09 31° SE 03:49:09 31° SE 03:55:20 10° E visible
03 Mar 8.9 05:53:45 19° WSW 05:59:10 53° S 06:11:40 10° ESE visible
04 Mar 8.2 04:44:16 45° SSW 04:45:17 48° S 04:55:10 10° E visible
05 Mar 9.3 03:34:48 26° ESE 03:34:48 26° ESE 03:39:07 10° E visible
05 Mar 8.7 05:39:23 24° WSW 05:43:36 50° S 05:54:53 10° ESE visible
06 Mar 8.2 04:29:55 46° S 04:29:55 46° S 04:38:43 10° ESE visible
06 Mar 9.2 06:35:05 10° W 06:42:09 42° S 06:54:12 10° SE visible
07 Mar 9.6 03:20:28 19° ESE 03:20:28 19° ESE 03:23:01 10° ESE visible
07 Mar 8.4 05:25:04 29° SW 05:28:07 45° S 05:38:10 10° ESE visible
08 Mar 8.4 04:15:38 39° SSE 04:15:38 39° SSE 04:22:23 10° ESE visible
08 Mar 9.2 06:20:13 10° WSW 06:26:35 36° SSW 06:37:07 10° SE visible
